Location: Zapote
(9.9191°N, 84.0597°W)
Time: 13:56:56
(UTC-06:00)

Vanguard 1 Rocket - Visible Passes

Search period start: 04 March 2021 00:00
Search period end: 14 March 2021 00:00
Orbit: 654 x 4223 km, 34.3° (Epoch: 03 March)

Date Brightness Start Highest point End Pass type
(mag) Time Alt. Az. Time Alt. Az. Time Alt. Az.
04 Mar 11.2 00:51:32 35° NNE 00:51:32 35° NNE 01:05:20 10° NE visible
04 Mar 11.1 03:08:45 27° NW 03:20:18 36° N 03:39:14 10° ENE visible
04 Mar 10.4 18:22:42 10° SSE 18:26:18 12° SE 18:30:36 10° ESE visible
04 Mar 9.6 20:40:53 10° SW 20:48:45 52° S 20:48:45 52° S visible
04 Mar 11.4 23:43:44 21° NE 23:43:44 21° NE 23:49:47 10° NE visible
05 Mar 11.0 02:00:58 38° NNW 02:02:06 38° N 02:24:10 10° NE visible
05 Mar 11.0 04:18:17 10° NW 04:41:56 41° NNE 04:57:40 10° E visible
05 Mar 9.7 19:31:08 10° SSW 19:40:22 38° SE 19:41:50 37° ESE visible
05 Mar 10.4 21:54:52 10° WSW 22:35:57 - NE 21:59:10 30° WSW visible
06 Mar 11.1 00:53:10 35° NNE 00:53:10 35° NNE 01:08:31 10° NE visible
06 Mar 11.1 03:10:23 24° NW 03:24:38 37° N 03:43:27 10° ENE visible
06 Mar 10.1 18:23:04 10° S 18:28:58 18° SE 18:35:01 13° E visible
06 Mar 9.4 20:43:45 10° SW 20:52:20 65° SSW 20:52:20 65° SSW visible
06 Mar 11.4 23:45:23 22° NE 23:45:23 22° NE 23:52:31 10° NE visible
07 Mar 11.0 02:02:36 36° NNW 02:06:25 37° N 02:28:07 10° ENE visible
07 Mar 10.9 04:21:23 10° NW 04:45:51 46° NNE 05:01:47 10° E visible
07 Mar 9.3 19:33:37 10° SSW 19:42:50 49° SE 19:45:35 45° ESE visible
07 Mar 10.4 21:58:17 10° WSW 22:37:36 - NE 22:02:55 30° W visible
08 Mar 11.1 00:54:50 36° NNE 00:54:50 36° NNE 01:11:58 10° NE visible
08 Mar 11.1 03:12:03 22° NW 03:28:51 40° NNE 03:47:44 10° ENE visible
08 Mar 9.7 18:24:42 10° S 18:31:30 25° SE 18:38:54 16° E visible
08 Mar 9.3 20:46:51 10° SW 20:56:14 75° WSW 20:56:14 75° WSW visible
08 Mar 11.4 23:47:04 24° NE 23:47:04 24° NE 23:55:28 10° NE visible
09 Mar 11.1 02:04:17 34° NNW 02:10:48 37° N 02:32:18 10° ENE visible
09 Mar 10.8 04:24:14 10° NW 04:49:31 54° NNE 05:05:41 10° E visible
09 Mar 9.0 19:36:22 10° SW 19:45:24 64° SE 19:49:37 49° E visible
09 Mar 10.5 22:01:56 10° W 22:39:20 - NE 22:06:58 31° W visible
10 Mar 11.1 00:56:34 36° NNE 00:56:34 36° NNE 01:15:46 10° ENE visible
10 Mar 11.0 03:13:47 20° NW 03:32:52 44° NNE 03:51:56 10° E visible
10 Mar 9.3 18:26:53 10° SSW 18:33:59 34° SE 18:43:04 17° E visible
10 Mar 9.4 20:50:09 10° WSW 21:00:26 70° NW 21:00:26 70° NW visible
10 Mar 11.4 23:48:52 25° NE 23:48:52 25° NE 23:58:40 10° NE visible
11 Mar 11.1 02:06:07 32° NNW 02:15:05 39° N 02:36:38 10° ENE visible
11 Mar 10.6 04:26:56 10° NW 04:52:55 62° NNE 05:09:23 10° ESE visible
11 Mar 8.9 19:39:20 10° SW 19:48:09 81° SE 19:53:56 45° ENE visible
11 Mar 10.5 22:05:47 10° W 22:41:14 11° NE 22:41:38 10° NE visible
12 Mar 11.1 00:58:28 36° N 00:58:28 36° N 01:19:51 10° ENE visible
12 Mar 10.9 03:15:43 18° NW 03:36:37 50° NNE 03:55:59 10° E visible
12 Mar 8.9 18:29:25 10° SSW 18:36:33 47° SE 18:47:30 15° ENE visible
12 Mar 9.7 20:53:40 10° WSW 21:04:21 58° NNW 21:04:53 58° NNW visible
12 Mar 11.4 23:50:55 26° NE 23:50:55 26° NE 00:02:11 10° NE visible
13 Mar 11.1 02:08:10 32° NNW 02:19:12 42° NNE 02:40:57 10° E visible
13 Mar 10.5 04:29:32 10° NW 04:56:02 73° NNE 05:12:49 10° ESE visible
13 Mar 9.0 19:42:31 10° WSW 19:51:09 80° NNW 19:58:28 37° NE visible
13 Mar 10.6 22:09:50 10° W 22:43:25 12° NE 22:44:33 10° NE visible
